When you browse on this site, cookies collect data to enhance your experience and personalize the content and advertising you see.
Visit our Privacy Policy to learn more. By continuing to use the site, you agree to this use of cookies and data.
  • In Switzerland
  • List of Countries
  • For 7 days
  • Water Temperature
  • Satellite Maps
  • Weather Map
  • Weather Widgets
  • user-avatar
    Login

    Hourly Weather Tovste

    Today, 22 April, Monday

    Time Temperature Precipitation Wind Pressure Humidity
    00:00 +7°C° 0 mm 3 mps 752 mmHg 66%
    01:00 +5°C° 0 mm 3 mps 752 mmHg 64%
    02:00 +5°C° 0 mm 3 mps 752 mmHg 63%
    03:00 +5°C° 0 mm 3 mps 753 mmHg 62%
    04:00 +6°C° 0 mm 2 mps 753 mmHg 61%
    05:00 +7°C° 0 mm 2 mps 753 mmHg 60%
    06:00 +8°C° 0 mm 3 mps 754 mmHg 56%
    07:00 +9°C° 0 mm 3 mps 754 mmHg 52%
    08:00 +11°C° 0 mm 3 mps 754 mmHg 48%
    09:00 +12°C° 0 mm 4 mps 754 mmHg 43%
    10:00 +13°C° 0 mm 4 mps 755 mmHg 38%
    11:00 +14°C° 0 mm 5 mps 755 mmHg 33%
    12:00 +14°C° 0 mm 4 mps 755 mmHg 34%
    13:00 +14°C° 0 mm 4 mps 755 mmHg 34%
    14:00 +15°C° 0 mm 4 mps 755 mmHg 34%
    15:00 +14°C° 0 mm 4 mps 755 mmHg 36%
    16:00 +14°C° 0 mm 3 mps 755 mmHg 38%
    17:00 +14°C° 0 mm 3 mps 755 mmHg 40%
    18:00 +14°C° 0 mm 2 mps 755 mmHg 44%
    19:00 +12°C° 0 mm 2 mps 755 mmHg 48%
    20:00 +10°C° 0 mm 2 mps 756 mmHg 52%
    21:00 +9°C° 0 mm 2 mps 756 mmHg 54%
    22:00 +8°C° 0 mm 2 mps 756 mmHg 56%
    23:00 +8°C° 0 mm 2 mps 756 mmHg 58%

    Tomorrow, 23 April, Tuesday

    Time Temperature Precipitation Wind Pressure Humidity
    00:00 +7°C° 0 mm 2 mps 757 mmHg 59%
    01:00 +7°C° 0 mm 2 mps 757 mmHg 60%
    02:00 +6°C° 0 mm 2 mps 757 mmHg 61%
    03:00 +6°C° 0 mm 2 mps 757 mmHg 61%
    04:00 +6°C° 0 mm 2 mps 757 mmHg 62%
    05:00 +6°C° 0 mm 2 mps 757 mmHg 63%
    06:00 +8°C° 0 mm 3 mps 757 mmHg 59%
    07:00 +10°C° 0 mm 3 mps 757 mmHg 55%
    08:00 +12°C° 0 mm 4 mps 758 mmHg 50%
    09:00 +13°C° 0 mm 4 mps 758 mmHg 45%
    10:00 +14°C° 0 mm 5 mps 758 mmHg 39%
    11:00 +16°C° 0 mm 5 mps 758 mmHg 33%
    12:00 +16°C° 0 mm 5 mps 758 mmHg 34%
    13:00 +16°C° 0 mm 5 mps 757 mmHg 35%
    14:00 +16°C° 0 mm 5 mps 757 mmHg 36%
    15:00 +16°C° 0 mm 5 mps 757 mmHg 38%
    16:00 +16°C° 0 mm 5 mps 757 mmHg 39%
    17:00 +16°C° 0 mm 5 mps 756 mmHg 40%
    18:00 +14°C° 0 mm 4 mps 756 mmHg 45%
    19:00 +13°C° 0 mm 3 mps 756 mmHg 50%
    20:00 +11°C° 0 mm 3 mps 757 mmHg 55%
    21:00 +10°C° 0 mm 3 mps 757 mmHg 57%
    22:00 +10°C° 0 mm 3 mps 757 mmHg 59%
    23:00 +9°C° 0 mm 3 mps 757 mmHg 61%

    Day after tomorrow, 24 April, Wednesday

    Time Temperature Precipitation Wind Pressure Humidity
    00:00 +9°C° 0 mm 3 mps 757 mmHg 63%
    01:00 +8°C° 0 mm 3 mps 757 mmHg 64%
    02:00 +8°C° 0 mm 3 mps 757 mmHg 65%
    03:00 +7°C° 0 mm 3 mps 757 mmHg 67%
    04:00 +7°C° 0 mm 3 mps 757 mmHg 69%
    05:00 +5°C° 0 mm 3 mps 757 mmHg 70%
    06:00 +8°C° 0 mm 3 mps 757 mmHg 65%
    07:00 +10°C° 0 mm 3 mps 758 mmHg 60%
    08:00 +12°C° 0 mm 3 mps 758 mmHg 55%
    09:00 +14°C° 0 mm 4 mps 758 mmHg 49%
    10:00 +15°C° 0 mm 4 mps 758 mmHg 44%
    11:00 +17°C° 0 mm 5 mps 758 mmHg 38%
    12:00 +17°C° 0 mm 5 mps 758 mmHg 38%
    13:00 +19°C° 0 mm 5 mps 758 mmHg 38%
    14:00 +19°C° 0 mm 5 mps 757 mmHg 38%
    15:00 +19°C° 0 mm 5 mps 757 mmHg 39%
    16:00 +19°C° 0 mm 4 mps 757 mmHg 41%
    17:00 +18°C° 0 mm 4 mps 756 mmHg 42%
    18:00 +16°C° 0 mm 3 mps 756 mmHg 48%
    19:00 +14°C° 0 mm 3 mps 756 mmHg 54%
    20:00 +13°C° 0 mm 2 mps 757 mmHg 60%
    21:00 +12°C° 0 mm 2 mps 757 mmHg 62%
    22:00 +10°C° 0 mm 2 mps 757 mmHg 64%
    23:00 +10°C° 0 mm 2 mps 757 mmHg 66%

    25 April, Thursday

    Time Temperature Precipitation Wind Pressure Humidity
    00:00 +9°C° 0 mm 2 mps 757 mmHg 67%
    01:00 +9°C° 0 mm 2 mps 757 mmHg 68%
    02:00 +9°C° 0 mm 2 mps 757 mmHg 69%
    03:00 +8°C° 0 mm 2 mps 757 mmHg 70%
    04:00 +8°C° 0 mm 2 mps 757 mmHg 70%
    05:00 +8°C° 0 mm 2 mps 757 mmHg 71%
    06:00 +10°C° 0 mm 3 mps 757 mmHg 65%
    07:00 +12°C° 0 mm 3 mps 757 mmHg 59%
    08:00 +14°C° 0 mm 4 mps 757 mmHg 53%
    09:00 +15°C° 0 mm 4 mps 757 mmHg 48%
    10:00 +17°C° 0 mm 5 mps 757 mmHg 44%
    11:00 +19°C° 0 mm 6 mps 757 mmHg 40%
    12:00 +20°C° 0 mm 5 mps 757 mmHg 39%
    13:00 +20°C° 0 mm 5 mps 756 mmHg 38%
    14:00 +21°C° 0 mm 5 mps 756 mmHg 37%
    15:00 +20°C° 0 mm 5 mps 756 mmHg 39%
    16:00 +20°C° 0 mm 5 mps 755 mmHg 40%
    17:00 +20°C° 0 mm 4 mps 755 mmHg 42%
    18:00 +18°C° 0 mm 4 mps 755 mmHg 48%
    19:00 +16°C° 0 mm 3 mps 755 mmHg 54%
    20:00 +13°C° 0 mm 3 mps 754 mmHg 60%
    21:00 +13°C° 0 mm 3 mps 754 mmHg 62%
    22:00 +12°C° 0 mm 3 mps 754 mmHg 63%
    23:00 +11°C° 0 mm 3 mps 754 mmHg 64%

    26 April, Friday

    Time Temperature Precipitation Wind Pressure Humidity
    00:00 +11°C° 0 mm 3 mps 754 mmHg 64%
    01:00 +10°C° 0 mm 3 mps 754 mmHg 64%
    02:00 +10°C° 0 mm 3 mps 754 mmHg 63%
    03:00 +9°C° 0 mm 3 mps 754 mmHg 63%
    04:00 +9°C° 0 mm 3 mps 753 mmHg 63%
    05:00 +9°C° 0 mm 3 mps 753 mmHg 63%
    06:00 +11°C° 0 mm 4 mps 753 mmHg 57%
    07:00 +12°C° 0 mm 5 mps 753 mmHg 52%
    08:00 +14°C° 0 mm 5 mps 753 mmHg 47%
    09:00 +16°C° 0 mm 6 mps 753 mmHg 42%
    10:00 +17°C° 0 mm 6 mps 752 mmHg 37%
    11:00 +20°C° 0 mm 7 mps 752 mmHg 33%
    12:00 +20°C° 0 mm 6 mps 752 mmHg 33%
    13:00 +21°C° 0 mm 6 mps 751 mmHg 34%
    14:00 +22°C° 0 mm 6 mps 751 mmHg 35%
    15:00 +21°C° 0 mm 6 mps 751 mmHg 38%
    16:00 +21°C° 0 mm 5 mps 750 mmHg 41%
    17:00 +21°C° 0 mm 5 mps 750 mmHg 44%
    18:00 +19°C° 0 mm 4 mps 750 mmHg 51%
    19:00 +17°C° 0 mm 3 mps 750 mmHg 58%
    20:00 +14°C° 0 mm 3 mps 750 mmHg 64%
    21:00 +14°C° 0 mm 3 mps 749 mmHg 66%
    22:00 +13°C° 0 mm 3 mps 749 mmHg 67%
    23:00 +13°C° 0 mm 3 mps 749 mmHg 68%

    27 April, Saturday

    Time Temperature Precipitation Wind Pressure Humidity
    00:00 +12°C° 0 mm 3 mps 749 mmHg 70%
    01:00 +12°C° 0 mm 3 mps 749 mmHg 71%
    02:00 +11°C° 0 mm 3 mps 749 mmHg 73%
    03:00 +11°C° 0 mm 3 mps 749 mmHg 73%
    04:00 +10°C° 0 mm 3 mps 749 mmHg 74%
    05:00 +10°C° 0 mm 3 mps 749 mmHg 74%
    06:00 +11°C° 0 mm 3 mps 749 mmHg 70%
    07:00 +13°C° 0 mm 3 mps 749 mmHg 65%
    08:00 +15°C° 0 mm 4 mps 749 mmHg 61%
    09:00 +18°C° 0 mm 4 mps 749 mmHg 55%
    10:00 +19°C° 0 mm 5 mps 750 mmHg 49%
    11:00 +21°C° 0 mm 5 mps 750 mmHg 42%
    12:00 +22°C° 0 mm 5 mps 749 mmHg 42%
    13:00 +22°C° 0 mm 5 mps 749 mmHg 41%
    14:00 +23°C° 0 mm 5 mps 749 mmHg 40%
    15:00 +23°C° 0 mm 4 mps 749 mmHg 41%
    16:00 +22°C° 0 mm 4 mps 749 mmHg 42%
    17:00 +22°C° 0 mm 3 mps 749 mmHg 43%
    18:00 +20°C° 0 mm 3 mps 749 mmHg 50%
    19:00 +18°C° 0 mm 3 mps 749 mmHg 56%
    20:00 +16°C° 0 mm 2 mps 749 mmHg 63%
    21:00 +16°C° 0 mm 2 mps 750 mmHg 65%
    22:00 +14°C° 0 mm 3 mps 750 mmHg 68%
    23:00 +13°C° 0 mm 3 mps 750 mmHg 70%
    Show more